Location: Ferchesar
(52.6477°N, 12.4298°E)
Time: 18:35:34
(UTC+01:00)

Vanguard 1 Rocket - Pass Details

Date: 09 December 2021
Orbit: 651 x 4224 km, 34.3° (Epoch: 16 January)

Event Time Altitude Azimuth Distance (km) Brightness Sun altitude
Exits shadow 06:06:09 12° 251° (WSW) 4,809 10.6 -17.5°
Maximum altitude 06:17:57 31° 199° (SSW) 4,621 10.9 -15.7°
Drops below altitude 10° 06:36:27 10° 148° (SSE) 7,276 12.8 -13.1°
Sets 06:43:40 0° 140° (SE) 8,453 13.5 -12.1°
